www.pogodaiklimat.ru

Погода и климат >> Архив погоды >> Япония >> Кумамото


ПОГОДА в Кумамото

  • Прогноз погоды в Кумамото
  • Монитор погоды в Кумамото

АРХИВ ПОГОДЫ в Кумамото

Время (UTC), дата Ветер
(напр.,м/с)
 
Видим.   Явления Облачность Т
(С)
Тd
(С)
f
(%)
Тe
(С)
Тes
(С)
Комфортность P
(гПа)
Po
(гПа)
Тmin
(С)
Tmax
(С)
R
(мм)
R24
(мм)
S
(см)
03 16.09 С 4 40 км 3/3
[Cu hum]
+30.7 +19.4 51 +36 +45 очень
душно
1004.8 1000.4
04 16.09 С 4 н/о н/о +32.3 +19.9 48 +38 +38 очень
душно
1004.3 999.9
05 16.09 С 5 н/о н/о +32.4 +19.7 47 +38 +38 очень
душно
1003.7 999.4
06 16.09 С 5 40 км 3/3
[Cu hum]
+32.0 +17.9 43 +36 +40 очень
душно
1003.4 999.0
07 16.09 С 4 н/о н/о +31.0 +19.0 49 +36 +36 очень
душно
1003.6 999.2
08 16.09 СВ 6 н/о н/о +29.6 +17.4 48 +34 +34 очень
душно
1004.3 999.9
09 16.09 СВ 5 40 км 1/1
[Cu Sc]
+28.0 +17.2 52 +32 +32 душно 1005.0 1000.6
10 16.09 С 5 н/о н/о +26.5 +17.3 57 +31 +31 душно 1005.5 1001.1
11 16.09 С 4 н/о н/о +25.5 +16.4 57 +29 +29 душно 1006.4 1001.9
12 16.09 С 2 20 км 1/1
[Sc]
+24.3 +17.1 64 +28 +28 душно 1007.1 1002.6 +33.2
13 16.09 С 2 н/о н/о +23.6 +16.4 64 +27 +27 жарко 1007.5 1003.0
14 16.09 С 2 н/о н/о +23.1 +16.9 68 +28 +28 душно 1007.3 1002.8
15 16.09 С 2 н/о н/о +22.8 +16.6 68 +27 +27 душно 1007.5 1003.0
16 16.09 С 2 н/о н/о +22.3 +16.8 71 +27 +27 душно 1007.6 1003.1
17 16.09 С 3 н/о н/о +22.1 +16.8 72 +26 +26 душно 1007.6 1003.1
18 16.09 С 3 20 км 1/1
[Sc]
+21.9 +16.6 72 +26 +26 душно 1007.5 1003.0
19 16.09 СЗ 3 н/о н/о +22.2 +16.3 69 +26 +26 душно 1007.5 1003.0
20 16.09 С 3 н/о н/о +22.1 +16.2 69 +26 +26 душно 1007.8 1003.3
21 16.09 С 2 30 км 1/1
[Cu Sc]
+21.4 +16.2 72 +25 +25 комфорт 1008.4 1003.9
22 16.09 С 2 н/о н/о +21.9 +16.4 71 +26 +26 душно 1008.9 1004.4
23 16.09 С 2 н/о н/о +24.5 +16.8 62 +28 +28 душно 1009.3 1004.8
00 17.09 С 4 40 км 1/1
[Cu hum]
+26.5 +17.0 56 +30 +35 душно 1009.5 1005.0 +20.8
01 17.09 С 3 н/о н/о +28.1 +17.3 52 +32 +32 душно 1009.4 1005.0
02 17.09 С 4 н/о н/о +29.8 +18.9 52 +35 +35 очень
душно
1009.0 1004.6
03 17.09 СВ 6 25 км 3/3
[Cu hum]
+30.8 +18.5 48 +36 +41 очень
душно
1008.6 1004.2
04 17.09 СВ 5 н/о н/о +31.4 +18.4 46 +36 +36 очень
душно
1008.0 1003.6
05 17.09 СВ 4 н/о н/о +31.8 +19.1 47 +37 +37 очень
душно
1007.6 1003.2
06 17.09 СВ 4 40 км 8/6
[Cu Sc Ac trans]
+30.5 +17.9 47 +35 +37 очень
душно
1007.5 1003.1
07 17.09 СВ 4 н/о н/о +31.0 +18.4 47 +36 +36 очень
душно
1007.4 1003.0
08 17.09 В 4 н/о н/о +29.9 +18.4 50 +35 +35 очень
душно
1007.6 1003.2
09 17.09 СВ 4 30 км 8/3
[Cu Sc Ac trans]
+29.3 +17.8 50 +34 +34 очень
душно
1008.0 1003.6
11 17.09 С 4 н/о н/о +27.4 +17.9 56 +32 +32 очень
душно
1009.1 1004.7
12 17.09 С 3 20 км 8/8
[Sc Ac trans]
+26.2 +18.4 62 +31 +31 очень
душно
1010.0 1005.5 +32.3 0.0
13 17.09 СЗ 2 н/о н/о +25.7 +18.4 64 +30 +30 душно 1010.3 1005.8
14 17.09 СЗ 2 н/о н/о +25.2 +19.1 69 +30 +30 душно 1010.4 1005.9
15 17.09 С 1 н/о н/о +24.4 +19.3 73 +29 +29 душно 1010.5 1006.0
16 17.09 С 2 н/о н/о +24.0 +19.3 75 +29 +29 душно 1010.4 1005.9
18 17.09 СВ 1 20 км 1/0
[Ac trans]
+22.9 +19.5 81 +29 +29 очень
душно
1010.3 1005.8
20 17.09 С 1 н/о н/о +22.6 +19.2 81 +29 +29 очень
душно
1010.4 1005.9
21 17.09 С 1 30 км 1/1
[Cu hum Ac trans]
+22.2 +19.6 85 +28 +28 душно 1010.7 1006.2
23 17.09 СВ 2 н/о н/о +24.3 +20.2 78 +30 +30 очень
душно
1011.6 1007.1
01 18.09 С 2 н/о н/о +28.3 +21.1 65 +36 +36 очень
душно
1011.3 1006.9
02 18.09 СВ 2 н/о н/о +29.1 +20.0 58 +35 +35 очень
душно
1010.9 1006.5
03 18.09 СЗ 5 15 км 6/6
[Cu med, cong Ci sp]
+30.4 +21.8 60 +39 +42 очень
душно
1010.4 1006.0
04 18.09 СЗ 4 н/о н/о +30.7 +20.3 54 +37 +37 очень
душно
1009.6 1005.2
05 18.09 СЗ 4 н/о н/о +32.0 +18.9 46 +37 +37 очень
душно
1009.1 1004.7
06 18.09 СЗ 6 35 км 1/1
[Cu med, cong]
+30.5 +18.3 48 +35 +39 очень
душно
1008.8 1004.4
07 18.09 СЗ 6 н/о н/о +29.6 +17.4 48 +34 +34 очень
душно
1008.8 1004.4
09 18.09 С 4 40 км 3/1
[Sc Ac trans Ci fib]
+27.1 +16.7 53 +31 +31 душно 1010.1 1005.6
10 18.09 С 4 н/о н/о +25.6 +16.5 57 +29 +29 душно 1010.7 1006.2
11 18.09 С 3 н/о н/о +24.5 +16.8 62 +28 +28 душно 1011.7 1007.2
12 18.09 С 2 30 км 1/1
[Sc]
+23.2 +16.5 66 +28 +28 душно 1012.3 1007.8 +32.4
13 18.09 С 3 н/о н/о +22.8 +15.2 62 +27 +27 душно 1012.3 1007.8
14 18.09 С 4 н/о н/о +22.5 +15.1 63 +26 +26 жарко 1012.5 1008.0
15 18.09 С 3 н/о н/о +22.0 +14.4 62 +25 +25 комфорт 1012.9 1008.3
16 18.09 С 3 н/о н/о +21.6 +13.8 61 +24 +24 комфорт 1012.8 1008.2
17 18.09 С 2 н/о н/о +21.2 +13.6 62 +24 +24 комфорт 1012.9 1008.3
18 18.09 С 2 30 км 1/0
[Ci fib]
+20.9 +13.6 63 +24 +24 комфорт 1013.0 1008.4
19 18.09 С 3 н/о н/о +20.8 +13.3 62 +24 +24 комфорт 1013.3 1008.7
20 18.09 С 3 н/о н/о +20.8 +12.2 58 +24 +24 комфорт 1013.4 1008.8
21 18.09 СВ 5 30 км 1/1
[Cu hum Ac trans]
+21.8 +10.9 50 +24 +24 комфорт 1013.4 1008.8
22 18.09 С 5 н/о н/о +22.0 +10.8 49 +24 +24 комфорт 1013.4 1008.8
23 18.09 С 3 н/о н/о +22.6 +12.3 52 +25 +25 комфорт 1013.8 1009.3
00 19.09 СВ 4 40 км 1/1
[Cu hum Ac trans]
+25.1 +13.3 48 +27 +31 жарко 1014.2 1009.7 +20.0
01 19.09 СВ 4 н/о н/о +26.7 +14.8 48 +29 +29 жарко 1014.4 1009.9
02 19.09 С 4 н/о н/о +27.8 +15.5 47 +31 +31 душно 1013.9 1009.4
03 19.09 С 4 30 км 1/1
[Cu hum]
+29.2 +15.7 44 +32 +42 душно 1012.9 1008.5
04 19.09 В 5 н/о н/о +30.1 +13.4 36 +32 +32 жарко 1012.1 1007.7
05 19.09 СВ 5 н/о н/о +30.3 +14.8 39 +32 +32 жарко 1011.2 1006.8
06 19.09 СВ 5 30 км 5/1
[Cu hum Ci fib]
+30.3 +13.6 36 +32 +35 жарко 1010.6 1006.2
07 19.09 В 6 н/о н/о +29.5 +13.7 38 +31 +31 жарко 1010.4 1006.0
08 19.09 СВ 5 н/о н/о +28.7 +13.0 38 +30 +30 жарко 1010.5 1006.1
09 19.09 СВ 5 35 км 9/0
[Ci sp]
+26.9 +13.6 44 +29 +29 жарко 1011.4 1006.9
10 19.09 СВ 5 н/о н/о +25.2 +14.1 50 +28 +28 жарко 1012.3 1007.8
11 19.09 СВ 6 н/о н/о +24.4 +13.6 51 +27 +27 жарко 1013.2 1008.7
12 19.09 С 4 30 км ясно +23.8 +14.5 56 +26 +26 жарко 1013.4 1008.9 +31.3
13 19.09 С 3 н/о н/о +22.5 +14.9 62 +26 +26 жарко 1013.2 1008.7
14 19.09 С 3 н/о н/о +22.3 +15.4 65 +26 +26 жарко 1013.2 1008.7
15 19.09 С 3 н/о н/о +21.7 +15.6 68 +25 +25 комфорт 1013.2 1008.6
16 19.09 С 3 н/о н/о +21.6 +15.5 68 +25 +25 комфорт 1012.7 1008.1
18 19.09 С 2 25 км 3/0
[Ac trans]
+21.1 +15.2 69 +24 +24 комфорт 1012.2 1007.6
19 19.09 С 1 н/о н/о +21.0 +15.1 69 +25 +25 комфорт 1012.0 1007.4
20 19.09 С 1 н/о н/о +20.7 +15.1 70 +25 +25 комфорт 1012.2 1007.6
21 19.09 С 2 25 км 9/1
[Cu Sc Ac As]
+20.5 +15.3 72 +24 +24 комфорт 1012.3 1007.7
22 19.09 С 2 н/о н/о +21.3 +15.6 70 +25 +25 комфорт 1012.8 1008.2
23 19.09 СВ 1 н/о н/о +20.8 +17.0 79 +26 +26 душно 1013.5 1008.9
00 20.09 С 3 15 км слаб. дождь 10/1
[Frnb Ac As]
+20.9 +18.3 85 +26 +27 душно 1014.2 1009.6 +20.0 0.0
01 20.09 С 4 н/о н/о +21.0 +17.4 80 +25 +25 комфорт 1014.2 1009.6
02 20.09 С 4 н/о н/о +20.6 +15.0 70 +24 +24 комфорт 1014.2 1009.6
03 20.09 С 3 20 км слаб. дождь 10/1
[Frnb Ac As]
+20.5 +15.3 72 +24 +27 комфорт 1013.7 1009.1
04 20.09 С 3 н/о н/о +19.5 +16.9 85 +22 +22 комфорт 1013.3 1008.7
05 20.09 С 2 н/о н/о +20.1 +17.9 87 +24 +24 комфорт 1013.3 1008.7
06 20.09 СЗ 3 4000 м ливневой дождь 10/10
[Cu med, cong]
+19.4 +18.6 95 +22 +22 комфорт 1014.4 1009.8 8
07 20.09 С 5 н/о н/о +19.4 +19.1 98 +22 +22 комфорт 1014.4 1009.8
08 20.09 С 2 н/о н/о +19.8 +18.6 93 +23 +23 комфорт 1014.2 1009.6
09 20.09 СВ 4 10 км слаб. ливневой дождь 9/9
[Cu med, cong]
+20.2 +17.2 83 +23 +23 комфорт 1014.2 1009.6
10 20.09 СВ 7 н/о н/о +19.9 +16.6 81 +22 +22 комфорт 1014.2 1009.6
11 20.09 СВ 7 н/о н/о +20.1 +16.0 77 +22 +22 комфорт 1014.5 1009.9
12 20.09 СВ 8 20 км {ливн. осадки} 9/5
[Cu med, cong Ac As]
+20.1 +15.3 74 +22 +22 комфорт 1014.7 1010.1 +21.3 13
13 20.09 СВ 7 н/о н/о +20.2 +15.0 72 +22 +22 комфорт 1014.3 1009.7
14 20.09 СВ 7 н/о н/о +20.2 +15.2 73 +22 +22 комфорт 1014.3 1009.7
16 20.09 СВ 5 н/о н/о +20.4 +15.8 75 +23 +23 комфорт 1014.0 1009.4
17 20.09 СВ 4 н/о н/о +20.9 +16.1 74 +25 +25 комфорт 1013.9 1009.3
18 20.09 СВ 4 20 км {дождь} 8/0
[Ac trans]
+21.1 +16.5 75 +25 +25 комфорт 1013.4 1008.8 0.0
19 20.09 СВ 5 н/о н/о +21.3 +16.7 75 +25 +25 комфорт 1012.7 1008.1
20 20.09 СВ 6 н/о н/о +21.6 +17.0 75 +26 +26 душно 1011.9 1007.3
22 20.09 СВ 5 н/о н/о +22.8 +17.9 74 +28 +28 душно 1013.2 1008.7
23 20.09 СВ 6 н/о н/о +24.1 +18.7 72 +29 +29 душно 1013.3 1008.8
00 21.09 СВ 6 20 км 9/1
[Cu Sc Ac As Cs]
+25.4 +19.3 69 +31 +32 очень
душно
1013.0 1008.5 +19.9 0.0
01 21.09 СВ 6 н/о н/о +26.7 +20.1 67 +33 +33 очень
душно
1012.6 1008.1
02 21.09 СВ 5 н/о н/о +28.3 +20.3 62 +35 +35 очень
душно
1012.1 1007.7
03 21.09 СВ 5 20 км 9/3
[Cu Sc Ac As Cs]
+28.3 +19.8 60 +34 +37 очень
душно
1011.2 1006.8
04 21.09 СВ 6 н/о н/о +27.6 +19.9 63 +34 +34 очень
душно
1010.4 1006.0
06 21.09 СВ 6 20 км 9/3
[Cu med, cong Ac As Cs]
+26.9 +20.3 67 +33 +34 очень
душно
1009.3 1004.8
07 21.09 СВ 4 н/о н/о +27.6 +20.7 66 +34 +34 очень
душно
1008.9 1004.5
08 21.09 СВ 5 н/о н/о +27.0 +20.4 67 +33 +33 очень
душно
1009.5 1005.0
09 21.09 С 3 20 км 10/1
[Cu med, cong Ac As]
+25.4 +20.2 73 +31 +31 очень
душно
1010.4 1005.9
10 21.09 В 4 н/о н/о +25.3 +20.6 75 +31 +31 очень
душно
1010.7 1006.2
11 21.09 СВ 6 н/о н/о +25.3 +20.8 76 +32 +32 очень
душно
1010.7 1006.2
12 21.09 СВ 2 15 км слаб. ливневой дождь 10/8
[Cu med, cong Ac As]
+25.1 +21.0 78 +32 +32 очень
душно
1011.2 1006.7 +29.4 0.0
13 21.09 С 2 н/о н/о +24.3 +21.8 86 +31 +31 очень
душно
1010.5 1006.0
14 21.09 С 1 н/о н/о +24.4 +21.9 86 +31 +31 очень
душно
1010.5 1006.0
15 21.09 С 2 н/о н/о +24.0 +22.1 89 +31 +31 очень
душно
1009.7 1005.2
16 21.09 С 3 н/о н/о +24.0 +22.3 90 +31 +31 очень
душно
1008.4 1003.9
17 21.09 СВ 5 н/о н/о +24.1 +22.5 91 +32 +32 очень
душно
1007.7 1003.2
18 21.09 С 2 15 км в посл. час ливневой дождь 10/9
[Cu med, cong Ac As]
+23.8 +22.6 93 +31 +31 очень
душно
1006.7 1002.2 2
19 21.09 СВ 2 н/о н/о +23.9 +22.7 93 +31 +31 очень
душно
1006.1 1001.6
20 21.09 С 2 н/о н/о +23.7 +22.7 94 +31 +31 очень
душно
1005.3 1000.8
21 21.09 СЗ 2 15 км в посл. час ливневой дождь 10/8
[Cu med, cong Ac As]
+23.7 +22.7 94 +31 +31 очень
душно
1004.9 1000.4
22 21.09 СВ 2 н/о н/о +23.9 +22.9 94 +32 +32 очень
душно
1004.1 999.6
23 21.09 СВ 2 н/о н/о +24.0 +22.8 93 +32 +32 очень
душно
1004.4 999.9
00 22.09 СЗ 2 30 км в посл. час ливневой дождь 9/6
[Cu med, cong Ac As]
+24.7 +23.1 91 +33 +34 очень
душно
1003.2 998.7 +23.5 5
01 22.09 С 2 н/о н/о +25.3 +23.5 90 +34 +34 очень
душно
1002.1 997.7
02 22.09 З 2 н/о н/о +25.5 +23.7 90 +35 +35 очень
душно
1000.7 996.3
03 22.09 З 1 25 км в посл. час ливневой дождь 10/9
[Cu med, cong Ac As]
+26.3 +24.3 89 +37 +37 очень
душно
999.7 995.3
04 22.09 ЮЗ 1 н/о н/о +25.9 +23.6 87 +35 +35 очень
душно
999.3 994.9
05 22.09 В 2 н/о н/о +25.9 +24.1 90 +36 +36 очень
душно
997.2 992.8
06 22.09 В 4 30 км в посл. час ливневой дождь 10/8
[Cu med, cong Ac As]
+26.3 +24.3 89 +37 +37 очень
душно
996.1 991.7 3
07 22.09 ЮВ 3 н/о н/о +27.9 +23.3 76 +38 +38 очень
душно
994.6 990.2
08 22.09 Ю 4 н/о н/о +28.9 +22.2 67 +38 +38 очень
душно
994.2 989.8
09 22.09 Ю 6 30 км в посл. час ливневой дождь 10/6
[Cu med, cong Ac As]
+29.2 +21.9 65 +38 +38 очень
душно
993.5 989.2
10 22.09 Ю 7 н/о н/о +29.3 +22.3 66 +38 +38 очень
душно
993.2 988.9
11 22.09 Ю 7 н/о н/о +29.2 +22.4 67 +38 +38 очень
душно
993.5 989.2
12 22.09 ЮЗ 10 20 км слаб. ливневой дождь 9/8
[Cu med, cong Ac As]
+26.8 +22.4 77 +35 +35 очень
душно
995.0 990.6 +29.7 3
13 22.09 Ю 11 н/о н/о +26.1 +21.5 76 +33 +33 очень
душно
996.2 991.8
14 22.09 Ю 13 н/о н/о +25.3 +21.0 77 +32 +32 очень
душно
999.8 995.4
15 22.09 ЮЗ 13 н/о н/о +24.4 +21.1 82 +31 +31 очень
душно
1000.4 995.9
16 22.09 ЮЗ 8 н/о н/о +23.9 +21.0 84 +30 +30 очень
душно
1003.0 998.5
17 22.09 ЮЗ 8 н/о н/о +22.9 +20.6 87 +30 +30 очень
душно
1004.7 1000.2
19 22.09 СЗ 3 н/о н/о +21.4 +18.8 85 +26 +26 душно 1007.4 1002.9
20 22.09 Ю 3 н/о н/о +21.2 +18.4 84 +25 +25 комфорт 1009.3 1004.7
21 22.09 СЗ 2 20 км {ливн. осадки} 10/3 50 м
[Cu med, cong Ac As]
+21.2 +18.6 85 +26 +26 душно 1010.2 1005.6
22 22.09 В 1 н/о н/о +20.9 +18.8 88 +27 +27 душно 1011.3 1006.7
23 22.09 С 2 н/о н/о +21.7 +18.3 81 +26 +26 душно 1012.0 1007.4
00 23.09 С 2 30 км {ливн. осадки} 9/1 300 м
[Cu Sc Ac trans Ci sp]
+23.7 +19.0 75 +28 +32 душно 1012.3 1007.8 +20.8 3

 

Местоположение метеостанции Кумамото (Япония): широта 32.82 долгота 130.69 высота над уровнем моря 39 м.

В архиве по умолчанию представлена погода в Кумамото за последнюю неделю. Архивные данные за месяц целиком и за предыдущие месяцы, начиная с января 2011 года, Вы можете получить, выбрав интересующий диапазон дат из раскрывающегося списка и нажав кнопку "Ввод!".


*Определитесь, кто Вы:
робот инопланетянин человек

Внимание! Время в таблицах - всемирное. Для получения местного времени необходимо прибавить поправку, которая равна 9 ч.

Смотрите также архив погоды в соседних городах и на ближайших метеорологических станциях:

Погода на Асо (Япония) (35 км)
Погода на Ундзэне (Япония) (41 км)
Погода в Хите (Япония) (60 км)
Погода в Саге (Япония) (62 км)
Погода в Хитоёси (Япония) (67 км)
Погода в Нагасаки (Япония) (78 км)
Погода в Фукуоке (Япония) (89 км)
Погода в Иидзуке (Япония) (92 км)
Погода в Нобеоке (Япония) (94 км)
Погода в Сасебо (Япония) (97 км)

Пояснения к столбцам:

Ветер - указаны скорость ветра в м/с - средняя за 10 мин, порывы в срок и между сроками (в фигурных скобках) и направление, откуда дует ветер: С - северный, СВ - северо-восточный, В - восточный, ЮВ - юго-восточный, Ю - южный, ЮЗ - юго-западный, З - западный, СЗ - северо-западный.
Видимость - горизонтальная дальность видимости в метрах или километрах. При видимости от 1 до 10 км при отсутствии осадков обычно наблюдается дымка, при ухудшении видимости до 1 км и менее - туман. В сухую погоду видимость может ухудшаться дымом, пылью или мглою.
Явления - указаны атмосферные явления, наблюдавшиеся в срок или в последний час перед сроком; фигурными скобками обозначены явления, наблюдавшиеся между сроками (за 1-3 часа до срока); квадратными скобками обозначены град или гололедные отложения с указанием их диаметра в мм.
Облачность - указаны через наклонную черту общая и нижняя облачность в баллах и высота нижней границы облаков в метрах; квадратными скобками обозначены формы облаков: Ci - перистые, Cs - перисто-слоистые, Cc - перисто-кучевые, Ac - высококучевые, As - высокослоистые, Sc - слоисто-кучевые, Ns - слоисто-дождевые, Cu - кучевые, Cb - кучево-дождевые. Подробнее классификацию облаков см. в Атласе облаков (PDF).
T - Температура воздуха - температура, измеренная на высоте 2 м над землей.
Td - Температура точки росы - температура, при понижении до которой содержащийся в воздухе водяной пар достигнет насыщения.
f - Относительная влажность воздуха - влажноcть воздуха, измеренная на высоте 2 м над землей.
Te - Эффективная температура - температура, которую ощущает одетый по сезону человек в тени. Характеристика душности погоды. При расчете учитывается влияние влажности воздуха и скорости ветра на теплоощущения человека.
Tes - Эффективная температура на солнце - температура, которую ощущает человек, с поправкой на солнечный нагрев. Характеристика знойности погоды. Зависит от высоты солнца над горизонтом, облачности и скорости ветра. Ночью, в пасмурную погоду, а также при ветре 12 м/с и более поправка равна нулю.
P - Атмосферное давление - приведенное к уровню моря атмосферное давление.
Po - Атмосферное давление - измеренное на уровне метеостанции атмосферное давление.
Tmin - Минимальная температура - минимум температуры воздуха на высоте 2 м над землей.
Tmax - Максимальная температура - максимум температуры воздуха на высоте 2 м над землей.
R - Количество осадков - Количество выпавших осадков за период времени, мм. При наведении курсора мыши на число - период времени, за который выпало указанное количество осадков.
R24 - Количество осадков - Количество выпавших осадков за 24 часа, мм.
S - Снежный покров - Высота снежного покрова, см. При наведении курсора мыши на число - состояние снежного покрова и степень покрытия местности в баллах.